Piloten Info

Wichtige Hinweise:

  • Neue Tower Frequenz 122,330 kHz - keine Landung ohne Funkkontakt
  • PPR Betrieb
  • Temporäre Hindernisse (Baukräne) nahe dem Flugplatz durch Bauarbeiten entlang der Nürnberger Straße (Östliche Seite).
  • Starts auf RWY 09 sind nicht gestattet. Start generell auf RWY 27. Bei Planung Rückenwinde berücksichtigen!
  • Bei Anflügen auf RWY 27 sind Hindernisse vorhanden, aus diesem Grund die versetzte Schwelle27!
  • Der Flugverein Neumarkt führt seine Starts generell auf RWY 27 und Landungen auf RWY09 durch.
  • Es besteht keine Tankmöglichkeit.

Diese Hinweis sind als Ergänzung / Hilfe zur regulären Flugplanung gedacht.

Auszüge aus AIP VFR ohne Gewähr - es gelten die offiziellen Veröffentlichungen.







METAR Informationen der nächstgelegenen Flughäfen


EDDN / Flughafen Nürnberg „Albrecht Dürer“

EDDN 191520Z 32004KT 290V010 CAVOK 08/M04 Q1027 NOSIG

ETIC / Fliegerhorst Grafenwöhr AAF

ETIC 191256Z AUTO 31009KT 9999 FEW050 07/M06 A3030 RMK AO2 SLP283 T00721058 FZRANO $

ETIH / Fliegerhorst Hohenfels AAF

ETIH 191256Z AUTO 32006KT 9999 BKN050 07/M02 A3031 RMK AO2 SLP283 T00691025 $